Location: Ripley
(48.3812°N, 115.4473°W)
Time: 04:32:40
(UTC+00:00)

EO-88 - Pass Details

Date: 29 June 2022
Orbit: 453 x 461 km, 97.3° (Epoch: 17 August)

Event Time Altitude Azimuth Distance (km) Brightness Sun altitude
Exits shadow 05:48:35 10° 209° (SSW) 1,650 ? -13.8°
Reaches altitude 10° 05:48:39 10° 209° (SSW) 1,625 ? -13.8°
Maximum altitude 05:51:33 24° 265° (W) 1,013 ? -14.0°
Drops below altitude 10° 05:54:28 10° 322° (NW) 1,637 ? -14.2°
Sets 05:56:48 0° 336° (NNW) 2,519 ? -14.4°
